This demonstration page uses our WeatherBlox Daily Observations layout. Learn more.

Hourly Observations for September 9, 2020

Temp ( °F °C ) Dew Point ( °F °C ) Humidity (%) Winds ( mph kmh ) Pressure ( in mb ) Visibility ( mi km ) Precip ( " mm )
12:15 am 00:15 Mostly Cloudy 70 21 68 20 94 94 Calm 30.19 1022 10 16.0934 0 0
12:35 am 00:35 Partly Cloudy 70 21 68 20 94 94 Calm 30.19 1022 10 16.0934 0 0
12:55 am 00:55 Clear 68 20 68 20 100 100 Calm 30.19 1022 10 16.0934 0 0
1:15 am 01:15 Clear 68 20 66 19 94 94 Calm 30.19 1022 10 16.0934 0 0
1:35 am 01:35 Clear 66 19 66 19 100 100 Calm 30.2 1023 10 16.0934 0 0
1:55 am 01:55 Clear 64 18 64 18 100 100 Calm 30.2 1023 10 16.0934 0 0
2:15 am 02:15 Clear 66 19 66 19 100 100 Calm 30.2 1023 10 16.0934 0 0
2:35 am 02:35 Clear 64 18 64 18 100 100 Calm 30.2 1023 10 16.0934 0 0
2:55 am 02:55 Clear 64 18 64 18 100 100 Calm 30.2 1023 10 16.0934 0 0
3:15 am 03:15 Clear 64 18 64 18 100 100 Calm 30.2 1023 10 16.0934 0 0
3:35 am 03:35 Clear 64 18 64 18 100 100 Calm 30.19 1022 10 16.0934 0 0
3:55 am 03:55 Clear 63 17 63 17 100 100 Calm 30.21 1023 10 16.0934 0 0
4:15 am 04:15 Mostly Cloudy 64 18 64 18 100 100 Calm 30.2 1023 10 16.0934 0 0
4:35 am 04:35 Mostly Cloudy 63 17 63 17 100 100 Calm 30.21 1023 10 16.0934 0 0
4:55 am 04:55 Clear 64 18 64 18 100 100 N 3 6 30.2 1023 10 16.0934 0 0
5:15 am 05:15 Clear 64 18 64 18 100 100 Calm 30.2 1023 10 16.0934 0 0
5:35 am 05:35 Clear 64 18 64 18 100 100 ENE 3 6 30.2 1023 10 16.0934 0 0
5:55 am 05:55 Mostly Cloudy 64 18 64 18 100 100 Calm 30.21 1023 10 16.0934 0 0
6:15 am 06:15 Cloudy 64 18 64 18 100 100 NE 5 7 30.21 1023 10 16.0934 0 0
6:35 am 06:35 Cloudy 64 18 64 18 100 100 Calm 30.22 1024 10 16.0934 0 0
6:55 am 06:55 Cloudy 64 18 64 18 100 100 NE 3 6 30.22 1024 10 16.0934 0 0
7:15 am 07:15 Cloudy 64 18 64 18 100 100 NE 5 7 30.23 1024 5 8.0467 0 0
7:35 am 07:35 Cloudy 64 18 64 18 100 100 NE 3 6 30.24 1024 7 11.26538 0 0
7:55 am 07:55 Mostly Cloudy 64 18 64 18 100 100 N 6 9 30.24 1024 10 16.0934 0 0
8:15 am 08:15 Partly Cloudy 64 18 64 18 100 100 N 6 9 30.25 1025 10 16.0934 0 0
8:35 am 08:35 Partly Cloudy 64 18 64 18 100 100 NE 5 7 30.26 1025 10 16.0934 0 0
8:55 am 08:55 Mostly Cloudy 64 18 64 18 100 100 Calm 30.26 1025 10 16.0934 0 0
9:15 am 09:15 Mostly Cloudy 66 19 64 18 94 94 NE 5 7 30.27 1025 10 16.0934 0 0
9:35 am 09:35 Mostly Cloudy 68 20 64 18 88 88 NE 6 9 30.28 1025 10 16.0934 0 0
9:55 am 09:55 Mostly Cloudy 68 20 66 19 94 94 NE 3 6 30.28 1025 10 16.0934 0 0
10:15 am 10:15 Mostly Cloudy 68 20 66 19 94 94 NNE 6 9 30.29 1026 10 16.0934 0 0
10:35 am 10:35 Mostly Cloudy 70 21 66 19 88 88 NNE 5 7 30.28 1025 10 16.0934 0 0
10:55 am 10:55 Mostly Cloudy 70 21 68 20 94 94 NE 7 11 30.28 1025 10 16.0934 0 0
11:15 am 11:15 Cloudy 70 21 68 20 94 94 E 3 6 30.28 1025 10 16.0934 0 0
11:35 am 11:35 Cloudy 72 22 68 20 88 88 NE 7 11 30.28 1025 10 16.0934 0 0
11:55 am 11:55 Mostly Cloudy 72 22 68 20 88 88 NE 7 11 30.28 1025 10 16.0934 0 0
12:15 pm 12:15 Mostly Cloudy 72 22 68 20 88 88 ENE 6 9 30.28 1025 10 16.0934 0 0
12:35 pm 12:35 Mostly Cloudy 73 23 68 20 83 83 ENE 3 6 30.28 1025 10 16.0934 0 0
12:55 pm 12:55 Partly Cloudy 73 23 68 20 83 83 NE 6 9 30.28 1025 10 16.0934 0 0
1:15 pm 13:15 Partly Cloudy 75 24 68 20 78 78 ENE 6 9 30.27 1025 10 16.0934 0 0
1:35 pm 13:35 Sunny 77 25 66 19 69 69 NE 5 7 30.26 1025 10 16.0934 0 0
1:55 pm 13:55 Mostly Cloudy 77 25 68 20 74 74 ENE 8 13 30.26 1025 10 16.0934 0 0
2:15 pm 14:15 Cloudy 75 24 68 20 78 78 ENE 8 13 30.27 1025 10 16.0934 0 0
2:35 pm 14:35 Cloudy 72 22 70 21 94 94 NNE 3 6 30.26 1025 5 8.0467 0 0
2:55 pm 14:55 Cloudy 73 23 70 21 89 89 ENE 7 11 30.26 1025 10 16.0934 0 0
3:15 pm 15:15 Cloudy 73 23 68 20 83 83 NNE 5 7 30.25 1024 10 16.0934 0 0
3:35 pm 15:35 Mostly Cloudy 77 25 70 21 79 79 NNE 6 9 30.23 1024 10 16.0934 0 0
3:55 pm 15:55 Mostly Cloudy 77 25 70 21 79 79 NE 3 6 30.23 1024 10 16.0934 0 0
4:15 pm 16:15 Mostly Cloudy 77 25 70 21 79 79 NE 6 9 30.22 1024 10 16.0934 0 0
4:35 pm 16:35 Cloudy 77 25 70 21 79 79 ENE 5 7 30.23 1024 10 16.0934 0 0
4:55 pm 16:55 Cloudy 77 25 70 21 79 79 ENE 9 15 30.22 1024 10 16.0934 0 0
5:15 pm 17:15 Cloudy 77 25 70 21 79 79 E 5 7 30.22 1024 10 16.0934 0 0
5:35 pm 17:35 Cloudy 77 25 70 21 79 79 ENE 6 9 30.23 1024 10 16.0934 0 0
5:55 pm 17:55 Cloudy 77 25 70 21 79 79 ENE 5 7 30.23 1024 10 16.0934 0 0
6:15 pm 18:15 Cloudy 77 25 70 21 79 79 E 6 9 30.23 1024 10 16.0934 0 0
6:35 pm 18:35 Cloudy 75 24 72 22 89 89 ESE 6 9 30.24 1024 10 16.0934 0 0
6:55 pm 18:55 Cloudy 73 23 72 22 94 94 ENE 5 7 30.24 1024 10 16.0934 0 0
7:15 pm 19:15 Cloudy 73 23 72 22 94 94 ENE 3 6 30.24 1024 10 16.0934 0 0
7:35 pm 19:35 Cloudy 73 23 72 22 94 94 E 3 6 30.24 1024 10 16.0934 0 0
7:55 pm 19:55 Cloudy 73 23 72 22 94 94 Calm 30.25 1024 10 16.0934 0 0
8:15 pm 20:15 Cloudy 73 23 72 22 94 94 ENE 3 6 30.25 1024 10 16.0934 0 0
8:35 pm 20:35 Cloudy 73 23 72 22 94 94 Calm 30.26 1025 10 16.0934 0 0
8:55 pm 20:55 Cloudy 73 23 72 22 94 94 NE 3 6 30.27 1025 10 16.0934 0 0
9:15 pm 21:15 Cloudy 73 23 72 22 94 94 NE 5 7 30.27 1025 10 16.0934 0 0
9:35 pm 21:35 Cloudy 72 22 72 22 100 100 NE 6 9 30.27 1025 10 16.0934 0 0
9:55 pm 21:55 Cloudy 72 22 72 22 100 100 NE 5 7 30.27 1025 10 16.0934 0 0
10:15 pm 22:15 Cloudy 72 22 70 21 94 94 NE 6 9 30.27 1025 10 16.0934 0 0
10:35 pm 22:35 Cloudy 72 22 70 21 94 94 NE 5 7 30.27 1025 10 16.0934 0 0
10:55 pm 22:55 Cloudy 72 22 70 21 94 94 NE 5 7 30.27 1025 10 16.0934 0 0
11:15 pm 23:15 Cloudy 70 21 70 21 100 100 NE 5 7 30.27 1025 5 8.0467 0 0
11:35 pm 23:35 Cloudy 70 21 70 21 100 100 Calm 30.26 1025 2 3.21868 0 0
11:55 pm 23:55 Cloudy 70 21 70 21 100 100 ENE 3 6 30.26 1025 3 4.82802 0 0

Powered by AerisWeather